,,,PA_Meas_PMT16A,,PR_Meas_QMR101_102,,RH_Meas_QMH101,,SR_Meas_QMS101,,TA_Meas_QMH101,,GenWind,,GenWind,
date,time,status,PA,status,PR,status,RH,status,SR,status,TA,status,DirAvg,status,SpdAvg,
2012-06-22, 00:00:05,VALID,1003.03,VALID,0,VALID,92.9898,VALID,0,VALID,22.9403,VALID,355,VALID,0.612891,
2012-06-22, 00:01:05,VALID,1003.02,VALID,0,VALID,93.2721,VALID,0,VALID,22.9208,VALID,355,VALID,0.280859,
2012-06-22, 00:02:05,VALID,1003.03,VALID,0,VALID,93.4171,VALID,0,VALID,22.8995,VALID,355,VALID,0.199219,
2012-06-22, 00:03:05,VALID,1003.01,VALID,0,VALID,93.356,VALID,0,VALID,22.9013,VALID,355,VALID,0.342187,
2012-06-22, 00:04:05,VALID,1003.03,VALID,0,VALID,93.3637,VALID,0,VALID,22.8818,VALID,342,VALID,0.483984,
2012-06-22, 00:05:05,VALID,1003.03,VALID,0,VALID,93.3942,VALID,0,VALID,22.9013,VALID,336,VALID,0.680859,
2012-06-22, 00:06:05,VALID,1003.05,VALID,0,VALID,93.6078,VALID,0,VALID,22.9598,VALID,336,VALID,0.313281,
2012-06-22, 00:07:05,VALID,1003.05,VALID,0,VALID,93.6383,VALID,0,VALID,23.0183,VALID,336,VALID,0.407813,
2012-06-22, 00:08:05,VALID,1003.04,VALID,0,VALID,93.501,VALID,0,VALID,23.0378,VALID,336,VALID,0.230078,
2012-06-22, 00:09:05,VALID,1003.05,VALID,0,VALID,93.2797,VALID,0,VALID,23.0361,VALID,336,VALID,0.459766,
2012-06-22, 00:10:05,VALID,1003.04,VALID,0,VALID,93.0432,VALID,0,VALID,23.0573,VALID,336,VALID,0.239453,
2012-06-22, 00:11:05,VALID,1003.05,VALID,0,VALID,93.0203,VALID,0,VALID,23.0573,VALID,336,VALID,0.315234,
2012-06-22, 00:12:05,VALID,1003.06,VALID,0,VALID,93.0508,VALID,0,VALID,23.0769,VALID,336,VALID,0.302734,
2012-06-22, 00:13:05,VALID,1003.04,VALID,0,VALID,93.089,VALID,0,VALID,23.0964,VALID,336,VALID,0.337891,
2012-06-22, 00:14:05,VALID,1003.02,VALID,0,VALID,93.2111,VALID,0,VALID,23.0751,VALID,336,VALID,0.553516,
2012-06-22, 00:15:05,VALID,1003.03,VALID,0,VALID,93.1958,VALID,0,VALID,23.1159,VALID,336,VALID,0.455078,
2012-06-22, 00:16:05,VALID,1003,VALID,0,VALID,93.1577,VALID,0,VALID,23.0964,VALID,328,VALID,0.555078,
2012-06-22, 00:17:05,VALID,1002.95,VALID,0,VALID,93.1424,VALID,0,VALID,23.0769,VALID,322,VALID,0.462109,
2012-06-22, 00:18:05,VALID,1002.96,VALID,0,VALID,93.1195,VALID,0,VALID,23.0769,VALID,322,VALID,0.445703,
2012-06-22, 00:19:05,VALID,1002.92,VALID,0,VALID,92.9364,VALID,0,VALID,23.0556,VALID,322,VALID,0.306641,
2012-06-22, 00:20:05,VALID,1002.91,VALID,0,VALID,91.4715,VALID,0,VALID,22.9013,VALID,24,VALID,0.913281,
2012-06-22, 00:21:05,VALID,1002.91,VALID,0,VALID,92.532,VALID,0,VALID,22.8623,VALID,24,VALID,0.778125,
2012-06-22, 00:22:05,VALID,1002.89,VALID,0,VALID,93.2034,VALID,0,VALID,22.8445,VALID,24,VALID,0.79375,
2012-06-22, 00:23:05,VALID,1002.88,VALID,0,VALID,93.6154,VALID,0,VALID,22.8037,VALID,24,VALID,0.714063,
2012-06-22, 00:24:05,VALID,1002.89,VALID,0,VALID,93.2645,VALID,0,VALID,22.6672,VALID,24,VALID,0.726563,
2012-06-22, 00:25:05,VALID,1002.85,VALID,0,VALID,93.7146,VALID,0,VALID,22.6477,VALID,24,VALID,0.844531,
2012-06-22, 00:26:05,VALID,1002.82,VALID,0,VALID,94.1877,VALID,0,VALID,22.6477,VALID,24,VALID,0.726563,
2012-06-22, 00:27:05,VALID,1002.8,VALID,0,VALID,94.3937,VALID,0,VALID,22.6282,VALID,24,VALID,0.632422,
2012-06-22, 00:28:05,VALID,1002.79,VALID,0,VALID,94.5386,VALID,0,VALID,22.6087,VALID,24,VALID,0.566797,
2012-06-22, 00:29:05,VALID,1002.75,VALID,0,VALID,94.676,VALID,0,VALID,22.6087,VALID,24,VALID,0.394141,
2012-06-22, 00:30:04,VALID,1002.72,VALID,0,VALID,94.7751,VALID,0,VALID,22.6087,VALID,24,VALID,0.378516,
2012-06-22, 00:31:04,VALID,1002.73,VALID,0,VALID,94.7751,VALID,0,VALID,22.5501,VALID,36,VALID,0.668359,
2012-06-22, 00:32:04,VALID,1002.71,VALID,0,VALID,94.8514,VALID,0,VALID,22.5696,VALID,63,VALID,0.760547,
2012-06-22, 00:33:04,VALID,1002.66,VALID,0,VALID,94.9354,VALID,0,VALID,22.5679,VALID,63,VALID,0.732422,
2012-06-22, 00:34:04,VALID,1002.68,VALID,0,VALID,94.9735,VALID,0,VALID,22.6477,VALID,63,VALID,0.547656,
2012-06-22, 00:35:04,VALID,1002.67,VALID,0,VALID,94.8667,VALID,0,VALID,22.6282,VALID,63,VALID,0.880859,
2012-06-22, 00:36:04,VALID,1002.65,VALID,0,VALID,94.7828,VALID,0,VALID,22.6689,VALID,63,VALID,1.1043,
2012-06-22, 00:37:04,VALID,1002.62,VALID,0,VALID,94.5157,VALID,0,VALID,22.6087,VALID,46,VALID,0.926953,
2012-06-22, 00:38:04,VALID,1002.64,VALID,0,VALID,94.0732,VALID,0,VALID,22.5306,VALID,37,VALID,1.35391,
2012-06-22, 00:39:04,VALID,1002.61,VALID,0,VALID,94.1419,VALID,0,VALID,22.5111,VALID,38,VALID,1.18203,
2012-06-22, 00:40:04,VALID,1002.59,VALID,0,VALID,94.2258,VALID,0,VALID,22.4916,VALID,40,VALID,1.14453,
2012-06-22, 00:41:04,VALID,1002.58,VALID,0,VALID,94.3326,VALID,0,VALID,22.4526,VALID,40,VALID,1.31523,
2012-06-22, 00:42:04,VALID,1002.61,VALID,0,VALID,94.4318,VALID,0,VALID,22.3729,VALID,40,VALID,1.17852,
2012-06-22, 00:43:04,VALID,1002.57,VALID,0,VALID,94.47,VALID,0,VALID,22.3551,VALID,41,VALID,1.3043,
2012-06-22, 00:44:04,VALID,1002.56,VALID,0,VALID,94.5539,VALID,0,VALID,22.3161,VALID,48,VALID,1.24375,
2012-06-22, 00:45:04,VALID,1002.57,VALID,0,VALID,94.5997,VALID,0,VALID,22.2576,VALID,46,VALID,1.01602,
2012-06-22, 00:46:04,VALID,1002.57,VALID,0,VALID,94.6531,VALID,0,VALID,22.1974,VALID,35,VALID,0.852344,
2012-06-22, 00:47:04,VALID,1002.54,VALID,0,VALID,94.6988,VALID,0,VALID,22.1389,VALID,28,VALID,0.857031,
2012-06-22, 00:48:04,VALID,1002.55,VALID,0,VALID,94.7294,VALID,0,VALID,22.121,VALID,28,VALID,0.567187,
2012-06-22, 00:49:04,VALID,1002.54,VALID,0,VALID,94.7828,VALID,0,VALID,22.082,VALID,28,VALID,0.666406,
2012-06-22, 00:50:04,VALID,1002.52,VALID,0,VALID,94.8362,VALID,0,VALID,22.043,VALID,26,VALID,0.8375,
2012-06-22, 00:51:04,VALID,1002.53,VALID,0,VALID,94.9354,VALID,0,VALID,22.0235,VALID,17,VALID,1.01406,
2012-06-22, 00:52:04,VALID,1002.51,VALID,0,VALID,95.0269,VALID,0,VALID,22.004,VALID,15,VALID,1.01094,
2012-06-22, 00:53:04,VALID,1002.5,VALID,0,VALID,95.1185,VALID,0,VALID,22.0235,VALID,8,VALID,0.804297,
2012-06-22, 00:54:04,VALID,1002.54,VALID,0,VALID,95.1948,VALID,0,VALID,22.0235,VALID,354,VALID,0.885156,
2012-06-22, 00:55:04,VALID,1002.51,VALID,0,VALID,95.2482,VALID,0,VALID,22.0235,VALID,349,VALID,0.860547,
2012-06-22, 00:56:04,VALID,1002.54,VALID,0,VALID,95.294,VALID,0,VALID,22.0235,VALID,349,VALID,0.580859,
2012-06-22, 00:57:04,VALID,1002.52,VALID,0,VALID,95.3092,VALID,0,VALID,22.0235,VALID,349,VALID,0.68125,
2012-06-22, 00:58:04,VALID,1002.55,VALID,0,VALID,95.3168,VALID,0,VALID,22.0235,VALID,349,VALID,0.258203,
2012-06-22, 00:59:04,VALID,1002.53,VALID,0,VALID,95.3397,VALID,0,VALID,22.0023,VALID,349,VALID,0.628125,
2012-06-22, 01:00:04,VALID,1002.51,VALID,0,VALID,95.355,VALID,0,VALID,22.0235,VALID,349,VALID,0.746484,
2012-06-22, 01:01:04,VALID,1002.49,VALID,0,VALID,95.3779,VALID,0,VALID,22.043,VALID,349,VALID,0.734766,
2012-06-22, 01:02:04,VALID,1002.47,VALID,0,VALID,95.4008,VALID,0,VALID,22.0625,VALID,349,VALID,0.642187,
2012-06-22, 01:03:04,VALID,1002.45,VALID,0,VALID,95.4313,VALID,0,VALID,22.0625,VALID,349,VALID,0.698047,
2012-06-22, 01:04:04,VALID,1002.46,VALID,0,VALID,95.4313,VALID,0,VALID,22.043,VALID,349,VALID,0.635156,
2012-06-22, 01:05:04,VALID,1002.47,VALID,0,VALID,95.4389,VALID,0,VALID,22.0235,VALID,349,VALID,0.473047,
2012-06-22, 01:06:04,VALID,1002.49,VALID,0,VALID,95.4389,VALID,0,VALID,22.004,VALID,349,VALID,0.354688,
2012-06-22, 01:07:04,VALID,1002.52,VALID,0,VALID,95.4237,VALID,0,VALID,21.965,VALID,349,VALID,0.151562,
2012-06-22, 01:08:04,VALID,1002.56,VALID,0,VALID,95.4389,VALID,0,VALID,21.926,VALID,349,VALID,0,
2012-06-22, 01:09:04,VALID,1002.56,VALID,0,VALID,95.416,VALID,0,VALID,21.9065,VALID,349,VALID,0,
2012-06-22, 01:10:04,VALID,1002.57,VALID,0,VALID,95.416,VALID,0,VALID,21.887,VALID,349,VALID,0,
2012-06-22, 01:11:04,VALID,1002.52,VALID,0,VALID,95.4237,VALID,0,VALID,21.8675,VALID,349,VALID,0,
2012-06-22, 01:12:04,VALID,1002.53,VALID,0,VALID,95.4237,VALID,0,VALID,21.9065,VALID,349,VALID,0,
2012-06-22, 01:13:04,VALID,1002.51,VALID,0,VALID,95.4694,VALID,0,VALID,21.887,VALID,349,VALID,0.411719,
2012-06-22, 01:14:04,VALID,1002.49,VALID,0,VALID,95.4923,VALID,0,VALID,21.926,VALID,349,VALID,0.483203,
2012-06-22, 01:15:04,VALID,1002.49,VALID,0,VALID,95.5457,VALID,0,VALID,22.004,VALID,41,VALID,0.670703,
2012-06-22, 01:16:04,VALID,1002.48,VALID,0,VALID,95.5228,VALID,0,VALID,22.004,VALID,72,VALID,0.835547,
2012-06-22, 01:17:04,VALID,1002.5,VALID,0,VALID,95.5,VALID,0,VALID,22.004,VALID,72,VALID,0.873047,
2012-06-22, 01:18:04,VALID,1002.5,VALID,0,VALID,95.4313,VALID,0,VALID,22.0235,VALID,72,VALID,0.83125,
2012-06-22, 01:19:04,VALID,1002.52,VALID,0,VALID,95.3474,VALID,0,VALID,22.043,VALID,72,VALID,0.846484,
2012-06-22, 01:20:04,VALID,1002.53,VALID,0,VALID,95.2177,VALID,0,VALID,22.004,VALID,72,VALID,0.794141,
2012-06-22, 01:21:04,VALID,1002.58,VALID,0,VALID,95.1261,VALID,0,VALID,22.0235,VALID,72,VALID,0.963672,
2012-06-22, 01:22:04,VALID,1002.58,VALID,0,VALID,95.0727,VALID,0,VALID,22.043,VALID,59,VALID,1.05039,
2012-06-22, 01:23:04,VALID,1002.6,VALID,0,VALID,95.0269,VALID,0,VALID,22.0625,VALID,54,VALID,1.01602,
2012-06-22, 01:24:04,VALID,1002.62,VALID,0,VALID,94.9506,VALID,0,VALID,22.043,VALID,54,VALID,0.850391,
2012-06-22, 01:25:04,VALID,1002.6,VALID,0,VALID,94.8743,VALID,0,VALID,21.9828,VALID,54,VALID,0.666797,
2012-06-22, 01:26:04,VALID,1002.61,VALID,0,VALID,94.8362,VALID,0,VALID,21.965,VALID,54,VALID,0.505859,
2012-06-22, 01:27:04,VALID,1002.62,VALID,0,VALID,94.8591,VALID,0,VALID,21.9438,VALID,54,VALID,0.146875,
2012-06-22, 01:28:04,VALID,1002.62,VALID,0,VALID,94.8667,VALID,0,VALID,21.965,VALID,54,VALID,0.2875,
2012-06-22, 01:29:04,VALID,1002.58,VALID,0,VALID,94.9125,VALID,0,VALID,21.965,VALID,54,VALID,0.570313,
2012-06-22, 01:30:04,VALID,1002.58,VALID,0,VALID,95.0345,VALID,0,VALID,22.004,VALID,54,VALID,0.770312,
2012-06-22, 01:31:04,VALID,1002.57,VALID,0,VALID,95.1261,VALID,0,VALID,22.0218,VALID,54,VALID,0.780859,
2012-06-22, 01:32:04,VALID,1002.56,VALID,0,VALID,95.1871,VALID,0,VALID,22.1032,VALID,54,VALID,0.789844,
2012-06-22, 01:33:04,VALID,1002.54,VALID,0,VALID,95.1795,VALID,0,VALID,22.1015,VALID,54,VALID,0.764453,
2012-06-22, 01:34:04,VALID,1002.54,VALID,0,VALID,95.1261,VALID,0,VALID,22.1015,VALID,54,VALID,0.636328,
2012-06-22, 01:35:04,VALID,1002.54,VALID,0,VALID,95.0651,VALID,0,VALID,22.1015,VALID,54,VALID,0.569141,
2012-06-22, 01:36:04,VALID,1002.52,VALID,0,VALID,94.9735,VALID,0,VALID,22.1015,VALID,54,VALID,0.847266,
2012-06-22, 01:37:04,VALID,1002.5,VALID,0,VALID,94.8743,VALID,0,VALID,22.082,VALID,54,VALID,0.95,
2012-06-22, 01:38:04,VALID,1002.47,VALID,0,VALID,94.8362,VALID,0,VALID,22.082,VALID,54,VALID,1.23984,
2012-06-22, 01:39:04,VALID,1002.45,VALID,0,VALID,94.7904,VALID,0,VALID,22.082,VALID,54,VALID,1.37734,
2012-06-22, 01:40:04,VALID,1002.44,VALID,0,VALID,94.7751,VALID,0,VALID,22.082,VALID,60,VALID,1.34023,
2012-06-22, 01:41:04,VALID,1002.41,VALID,0,VALID,94.7599,VALID,0,VALID,22.0608,VALID,60,VALID,1.28242,
2012-06-22, 01:42:04,VALID,1002.39,VALID,0,VALID,94.7217,VALID,0,VALID,22.0413,VALID,60,VALID,0.986719,
2012-06-22, 01:43:04,VALID,1002.39,VALID,0,VALID,94.737,VALID,0,VALID,22.0625,VALID,60,VALID,0.851953,
2012-06-22, 01:44:04,VALID,1002.35,VALID,0,VALID,94.7675,VALID,0,VALID,22.0235,VALID,60,VALID,0.673047,
2012-06-22, 01:45:04,VALID,1002.33,VALID,0,VALID,94.7675,VALID,0,VALID,22.0235,VALID,60,VALID,0.572656,
2012-06-22, 01:46:04,VALID,1002.33,VALID,0,VALID,94.7523,VALID,0,VALID,22.004,VALID,60,VALID,0.463281,
2012-06-22, 01:47:04,VALID,1002.31,VALID,0,VALID,94.7904,VALID,0,VALID,21.9845,VALID,60,VALID,0.516016,
2012-06-22, 01:48:04,VALID,1002.29,VALID,0,VALID,94.8133,VALID,0,VALID,21.965,VALID,60,VALID,0.276172,
2012-06-22, 01:49:04,VALID,1002.26,VALID,0,VALID,94.8362,VALID,0,VALID,21.9455,VALID,60,VALID,0.144531,
2012-06-22, 01:50:04,VALID,1002.23,VALID,0,VALID,94.8896,VALID,0,VALID,21.9243,VALID,60,VALID,0.25,
2012-06-22, 01:51:04,VALID,1002.24,VALID,0,VALID,94.9659,VALID,0,VALID,21.926,VALID,60,VALID,0.346484,
2012-06-22, 01:52:04,VALID,1002.21,VALID,0,VALID,95.0422,VALID,0.104696,VALID,21.9243,VALID,60,VALID,0.319922,
2012-06-22, 01:53:04,VALID,1002.17,VALID,0,VALID,95.0727,VALID,0.104696,VALID,21.926,VALID,60,VALID,0.311328,
2012-06-22, 01:54:04,VALID,1002.18,VALID,0,VALID,95.1185,VALID,0.104696,VALID,21.8853,VALID,60,VALID,0.160938,
2012-06-22, 01:55:04,VALID,1002.13,VALID,0,VALID,95.1643,VALID,0,VALID,21.8853,VALID,60,VALID,0.00195313,
2012-06-22, 01:56:04,VALID,1002.14,VALID,0,VALID,95.1871,VALID,0,VALID,21.9065,VALID,60,VALID,0,
2012-06-22, 01:57:04,VALID,1002.1,VALID,0,VALID,95.21,VALID,0.104696,VALID,21.887,VALID,60,VALID,0,
2012-06-22, 01:58:04,VALID,1002.1,VALID,0,VALID,95.2253,VALID,0,VALID,21.8675,VALID,60,VALID,0.241797,
2012-06-22, 01:59:04,VALID,1002.09,VALID,0,VALID,95.2711,VALID,0,VALID,21.8463,VALID,60,VALID,0.486328,
2012-06-22, 02:00:04,VALID,1002.09,VALID,0,VALID,95.2863,VALID,0,VALID,21.8658,VALID,60,VALID,0.552734,
2012-06-22, 02:01:04,VALID,1002.11,VALID,0,VALID,95.294,VALID,0.104696,VALID,21.8675,VALID,60,VALID,0.4625,
2012-06-22, 02:02:04,VALID,1002.09,VALID,0,VALID,95.294,VALID,0,VALID,21.848,VALID,60,VALID,0.245703,
2012-06-22, 02:03:04,VALID,1002.07,VALID,0,VALID,95.2558,VALID,0.104696,VALID,21.7683,VALID,60,VALID,0,
2012-06-22, 02:04:04,VALID,1002.05,VALID,0,VALID,95.2329,VALID,0,VALID,21.7505,VALID,60,VALID,0,
2012-06-22, 02:05:04,VALID,1002.07,VALID,0,VALID,95.2329,VALID,0,VALID,21.7326,VALID,60,VALID,0,
2012-06-22, 02:06:04,VALID,1002.07,VALID,0,VALID,95.2863,VALID,0,VALID,21.7521,VALID,60,VALID,0.451562,
2012-06-22, 02:07:04,VALID,1002.07,VALID,0,VALID,95.3474,VALID,0,VALID,21.7911,VALID,60,VALID,0.441797,
2012-06-22, 02:08:04,VALID,1002.08,VALID,0,VALID,95.4008,VALID,0,VALID,21.8301,VALID,60,VALID,0.526953,
2012-06-22, 02:09:04,VALID,1002.1,VALID,0,VALID,95.4694,VALID,0,VALID,21.9277,VALID,186,VALID,0.975391,
2012-06-22, 02:10:04,VALID,1002.1,VALID,0,VALID,95.5228,VALID,0,VALID,22.0252,VALID,184,VALID,0.954297,
2012-06-22, 02:11:04,VALID,1002.08,VALID,0,VALID,95.5915,VALID,0,VALID,22.1032,VALID,183,VALID,0.914844,
2012-06-22, 02:12:04,VALID,1002.09,VALID,0,VALID,95.5915,VALID,0,VALID,22.1617,VALID,170,VALID,1.00117,
2012-06-22, 02:13:04,VALID,1002.07,VALID,0,VALID,95.5762,VALID,0,VALID,22.1795,VALID,160,VALID,1.22305,
2012-06-22, 02:14:04,VALID,1002.05,VALID,0,VALID,95.5457,VALID,0,VALID,22.2788,VALID,169,VALID,1.38086,
2012-06-22, 02:15:04,VALID,1002.04,VALID,0,VALID,95.4771,VALID,0,VALID,22.3373,VALID,170,VALID,1.74727,
2012-06-22, 02:16:04,VALID,1002.04,VALID,0,VALID,95.3703,VALID,0,VALID,22.3746,VALID,176,VALID,1.89492,
2012-06-22, 02:17:04,VALID,1002.03,VALID,0,VALID,95.088,VALID,0,VALID,22.4348,VALID,170,VALID,1.9375,
2012-06-22, 02:18:04,VALID,1002.02,VALID,0,VALID,94.6836,VALID,0,VALID,22.4738,VALID,171,VALID,1.51055,
2012-06-22, 02:19:04,VALID,1002.03,VALID,0,VALID,94.2487,VALID,0,VALID,22.5128,VALID,164,VALID,1.40664,
2012-06-22, 02:20:04,VALID,1002,VALID,0,VALID,93.8062,VALID,0,VALID,22.5128,VALID,169,VALID,1.19297,
2012-06-22, 02:21:04,VALID,1001.98,VALID,0,VALID,93.3866,VALID,0,VALID,22.4933,VALID,173,VALID,1.55859,
2012-06-22, 02:22:04,VALID,1001.96,VALID,0,VALID,93.2874,VALID,0,VALID,22.5128,VALID,173,VALID,1.43242,
2012-06-22, 02:23:04,VALID,1001.96,VALID,0,VALID,93.2721,VALID,0,VALID,22.5128,VALID,171,VALID,1.14023,
2012-06-22, 02:24:04,VALID,1001.95,VALID,0,VALID,93.3713,VALID,0,VALID,22.5519,VALID,177,VALID,1.17695,
2012-06-22, 02:25:04,VALID,1001.91,VALID,0,VALID,93.3942,VALID,0,VALID,22.5714,VALID,185,VALID,0.907812,
2012-06-22, 02:26:04,VALID,1001.92,VALID,0,VALID,93.4018,VALID,0,VALID,22.5909,VALID,185,VALID,0.753125,
2012-06-22, 02:27:04,VALID,1001.92,VALID,0,VALID,93.3866,VALID,0,VALID,22.6104,VALID,185,VALID,0.394922,
2012-06-22, 02:28:04,VALID,1001.91,VALID,0,VALID,93.2797,VALID,0,VALID,22.6299,VALID,185,VALID,0.411719,
2012-06-22, 02:29:04,VALID,1001.9,VALID,0,VALID,93.295,VALID,0,VALID,22.6299,VALID,185,VALID,0.31875,
2012-06-22, 02:30:04,VALID,1001.87,VALID,0,VALID,93.2797,VALID,0,VALID,22.6299,VALID,185,VALID,0.431641,
2012-06-22, 02:31:04,VALID,1001.89,VALID,0,VALID,93.15,VALID,0,VALID,22.6494,VALID,185,VALID,0.4875,
2012-06-22, 02:32:04,VALID,1001.92,VALID,0,VALID,92.9364,VALID,0,VALID,22.6104,VALID,185,VALID,0.255859,
2012-06-22, 02:33:04,VALID,1001.92,VALID,0,VALID,92.6999,VALID,0,VALID,22.5714,VALID,185,VALID,0,
2012-06-22, 02:34:04,VALID,1001.89,VALID,0,VALID,92.6236,VALID,0,VALID,22.5306,VALID,185,VALID,0.0046875,
2012-06-22, 02:35:04,VALID,1001.93,VALID,0,VALID,92.7457,VALID,0,VALID,22.4704,VALID,185,VALID,0,
2012-06-22, 02:36:04,VALID,1001.92,VALID,0,VALID,92.5854,VALID,0,VALID,22.4526,VALID,185,VALID,0.569531,
2012-06-22, 02:37:04,VALID,1001.95,VALID,0,VALID,92.3566,VALID,0,VALID,22.3356,VALID,185,VALID,0.319922,
2012-06-22, 02:38:04,VALID,1001.97,VALID,0,VALID,92.8601,VALID,0,VALID,22.2576,VALID,185,VALID,0.167578,
2012-06-22, 02:39:04,VALID,1001.96,VALID,0,VALID,93.3408,VALID,0,VALID,22.2169,VALID,185,VALID,0.296094,
2012-06-22, 02:40:04,VALID,1001.96,VALID,0,VALID,93.6231,VALID,0,VALID,22.199,VALID,185,VALID,0.364062,
2012-06-22, 02:41:04,VALID,1001.94,VALID,0,VALID,93.9511,VALID,0,VALID,22.199,VALID,185,VALID,0.452344,
2012-06-22, 02:42:04,VALID,1001.95,VALID,0,VALID,94.1037,VALID,0.104696,VALID,22.199,VALID,185,VALID,0.394531,
2012-06-22, 02:43:04,VALID,1001.92,VALID,0,VALID,94.2029,VALID,0,VALID,22.1795,VALID,185,VALID,0.242188,
2012-06-22, 02:44:04,VALID,1001.93,VALID,0,VALID,94.3708,VALID,0,VALID,22.2186,VALID,185,VALID,0.224609,
2012-06-22, 02:45:04,VALID,1001.95,VALID,0,VALID,94.5005,VALID,0,VALID,22.199,VALID,185,VALID,0.252344,
2012-06-22, 02:46:04,VALID,1001.95,VALID,0,VALID,94.531,VALID,0,VALID,22.199,VALID,185,VALID,0.217578,
2012-06-22, 02:47:04,VALID,1001.93,VALID,0,VALID,94.5768,VALID,0,VALID,22.199,VALID,185,VALID,0.223828,
2012-06-22, 02:48:04,VALID,1001.91,VALID,0,VALID,94.6302,VALID,0,VALID,22.1779,VALID,185,VALID,0.338281,
2012-06-22, 02:49:04,VALID,1001.94,VALID,0,VALID,94.6607,VALID,0,VALID,22.1795,VALID,185,VALID,0.372266,
2012-06-22, 02:50:04,VALID,1001.92,VALID,0,VALID,94.6683,VALID,0,VALID,22.1405,VALID,185,VALID,0.207813,
2012-06-22, 02:51:04,VALID,1001.92,VALID,0,VALID,94.6454,VALID,0,VALID,22.121,VALID,185,VALID,0.173438,
2012-06-22, 02:52:04,VALID,1001.94,VALID,0,VALID,94.5997,VALID,0,VALID,22.082,VALID,185,VALID,0.176563,
2012-06-22, 02:53:04,VALID,1001.94,VALID,0,VALID,94.1571,VALID,0,VALID,21.965,VALID,185,VALID,0.575,
2012-06-22, 02:54:04,VALID,1001.97,VALID,0,VALID,94.3403,VALID,0,VALID,21.926,VALID,185,VALID,0.419531,
2012-06-22, 02:55:04,VALID,1001.93,VALID,0,VALID,94.5539,VALID,0,VALID,21.8853,VALID,185,VALID,0.29375,
2012-06-22, 02:56:04,VALID,1001.93,VALID,0,VALID,94.6226,VALID,0,VALID,21.8675,VALID,185,VALID,0.34375,
2012-06-22, 02:57:04,VALID,1001.92,VALID,0,VALID,94.6531,VALID,0,VALID,21.7895,VALID,185,VALID,0.109766,
2012-06-22, 02:58:04,VALID,1001.93,VALID,0,VALID,94.8285,VALID,0,VALID,21.7895,VALID,185,VALID,0.0242187,
2012-06-22, 02:59:04,VALID,1001.93,VALID,0,VALID,94.9125,VALID,0,VALID,21.7505,VALID,185,VALID,0.0234375,
2012-06-22, 03:00:04,VALID,1001.9,VALID,0,VALID,95.0574,VALID,0,VALID,21.7505,VALID,185,VALID,0.0132813,
2012-06-22, 03:01:04,VALID,1001.95,VALID,0,VALID,95.1795,VALID,0,VALID,21.77,VALID,185,VALID,0.572656,
2012-06-22, 03:02:04,VALID,1001.94,VALID,0,VALID,95.2711,VALID,0,VALID,21.848,VALID,185,VALID,0.697266,
2012-06-22, 03:03:04,VALID,1001.93,VALID,0,VALID,95.3397,VALID,0,VALID,21.8675,VALID,203,VALID,0.774609,
2012-06-22, 03:04:04,VALID,1001.94,VALID,0,VALID,95.3779,VALID,0,VALID,21.887,VALID,216,VALID,0.479688,
2012-06-22, 03:05:04,VALID,1001.93,VALID,0,VALID,95.3779,VALID,0,VALID,21.9065,VALID,216,VALID,0.0488281,
2012-06-22, 03:06:04,VALID,1001.95,VALID,0,VALID,95.3626,VALID,0,VALID,21.8675,VALID,216,VALID,0.0878906,
2012-06-22, 03:07:04,VALID,1001.94,VALID,0,VALID,95.3092,VALID,0,VALID,21.848,VALID,216,VALID,0.367188,
2012-06-22, 03:08:04,VALID,1001.94,VALID,0,VALID,95.2329,VALID,0,VALID,21.7895,VALID,216,VALID,0.470703,
2012-06-22, 03:09:04,VALID,1001.89,VALID,0,VALID,95.2634,VALID,0,VALID,21.809,VALID,216,VALID,0.479688,
2012-06-22, 03:10:04,VALID,1001.91,VALID,0,VALID,95.2253,VALID,0,VALID,21.7505,VALID,216,VALID,0.917969,
2012-06-22, 03:11:04,VALID,1001.89,VALID,0,VALID,95.1948,VALID,0,VALID,21.7115,VALID,40,VALID,0.992578,
2012-06-22, 03:12:04,VALID,1001.89,VALID,0,VALID,95.1566,VALID,0,VALID,21.6725,VALID,40,VALID,0.862109,
2012-06-22, 03:13:04,VALID,1001.89,VALID,0,VALID,94.9125,VALID,0,VALID,21.5555,VALID,40,VALID,1.22109,
2012-06-22, 03:14:04,VALID,1001.92,VALID,0,VALID,95.1185,VALID,0,VALID,21.5945,VALID,40,VALID,1.15273,
2012-06-22, 03:15:04,VALID,1001.9,VALID,0,VALID,95.3321,VALID,0,VALID,21.731,VALID,40,VALID,1.08789,
2012-06-22, 03:16:04,VALID,1001.9,VALID,0,VALID,95.4465,VALID,0,VALID,21.7326,VALID,35,VALID,0.974219,
2012-06-22, 03:17:04,VALID,1001.93,VALID,0,VALID,95.3855,VALID,0,VALID,21.6335,VALID,30,VALID,0.466797,
2012-06-22, 03:18:04,VALID,1001.95,VALID,0,VALID,95.2558,VALID,0,VALID,21.536,VALID,30,VALID,0.592188,
2012-06-22, 03:19:04,VALID,1001.94,VALID,0,VALID,95.149,VALID,0,VALID,21.458,VALID,30,VALID,0.932031,
2012-06-22, 03:20:04,VALID,1001.96,VALID,0,VALID,95.1185,VALID,0,VALID,21.419,VALID,33,VALID,0.957031,
2012-06-22, 03:21:04,VALID,1001.98,VALID,0,VALID,95.1719,VALID,0,VALID,21.3995,VALID,35,VALID,0.859766,
2012-06-22, 03:22:04,VALID,1002.01,VALID,0,VALID,95.1566,VALID,0.104696,VALID,21.3605,VALID,35,VALID,0.813281,
2012-06-22, 03:23:04,VALID,1002.01,VALID,0,VALID,95.1566,VALID,0,VALID,21.302,VALID,35,VALID,0.434766,
2012-06-22, 03:24:04,VALID,1002.02,VALID,0,VALID,95.1566,VALID,0,VALID,21.2825,VALID,35,VALID,0.376172,
2012-06-22, 03:25:04,VALID,1002.02,VALID,0,VALID,95.1871,VALID,0,VALID,21.2419,VALID,35,VALID,0.376953,
2012-06-22, 03:26:04,VALID,1002.04,VALID,0,VALID,95.3168,VALID,0,VALID,21.2614,VALID,35,VALID,0.524609,
2012-06-22, 03:27:04,VALID,1002.02,VALID,0,VALID,95.3931,VALID,0,VALID,21.3215,VALID,35,VALID,0.3875,
2012-06-22, 03:28:04,VALID,1002.08,VALID,0,VALID,95.4542,VALID,0,VALID,21.3215,VALID,35,VALID,0.424609,
2012-06-22, 03:29:04,VALID,1002.04,VALID,0,VALID,95.4618,VALID,0,VALID,21.302,VALID,31,VALID,0.842578,
2012-06-22, 03:30:04,VALID,1002.04,VALID,0,VALID,95.4771,VALID,0,VALID,21.302,VALID,30,VALID,0.748828,
2012-06-22, 03:31:04,VALID,1002.01,VALID,0,VALID,95.5228,VALID,0,VALID,21.302,VALID,30,VALID,0.844922,
2012-06-22, 03:32:04,VALID,1002.03,VALID,0,VALID,95.5457,VALID,0,VALID,21.341,VALID,30,VALID,1.00156,
2012-06-22, 03:33:04,VALID,1002.03,VALID,0,VALID,95.5839,VALID,0.104696,VALID,21.341,VALID,30,VALID,0.929297,
2012-06-22, 03:34:04,VALID,1002.01,VALID,0,VALID,95.6068,VALID,0,VALID,21.341,VALID,31,VALID,1.20156,
2012-06-22, 03:35:04,VALID,1001.97,VALID,0,VALID,95.622,VALID,0,VALID,21.38,VALID,39,VALID,1.36328,
2012-06-22, 03:36:04,VALID,1001.98,VALID,0,VALID,95.6373,VALID,0,VALID,21.341,VALID,39,VALID,1.29023,
2012-06-22, 03:37:04,VALID,1001.96,VALID,0,VALID,95.5991,VALID,0,VALID,21.2825,VALID,39,VALID,1.02109,
2012-06-22, 03:38:04,VALID,1001.97,VALID,0,VALID,95.5457,VALID,0,VALID,21.2045,VALID,50,VALID,1.0918,
2012-06-22, 03:39:04,VALID,1001.98,VALID,0,VALID,95.4618,VALID,0,VALID,21.1655,VALID,50,VALID,1.26758,
2012-06-22, 03:40:04,VALID,1001.99,VALID,0,VALID,95.4313,VALID,0,VALID,21.1655,VALID,50,VALID,1.12695,
2012-06-22, 03:41:04,VALID,1001.94,VALID,0,VALID,95.4389,VALID,0,VALID,21.1655,VALID,50,VALID,0.862109,
2012-06-22, 03:42:04,VALID,1001.95,VALID,0,VALID,95.4618,VALID,0,VALID,21.185,VALID,50,VALID,0.261328,
2012-06-22, 03:43:04,VALID,1002,VALID,0,VALID,95.4618,VALID,0,VALID,21.146,VALID,50,VALID,0.00820312,
2012-06-22, 03:44:04,VALID,1001.99,VALID,0,VALID,95.5,VALID,0,VALID,21.146,VALID,50,VALID,0.308984,
2012-06-22, 03:45:04,VALID,1002.01,VALID,0,VALID,95.5305,VALID,0,VALID,21.146,VALID,50,VALID,0.250391,
2012-06-22, 03:46:04,VALID,1001.97,VALID,0,VALID,95.5762,VALID,0,VALID,21.1655,VALID,50,VALID,0.289063,